{"data":{"norad_id":59865,"epoch":"2026-05-25T05:15:51.248160Z","epoch_age_seconds":52717,"freshness":"FRESH","line1":"1 59865U 24098H   26145.21934315 -.00000536  00000+0 -99433-5 0  9990","line2":"2 59865  43.0027 205.5115 0001482 281.7955  78.2730 15.27576057113559","mean_motion":15.27576057,"eccentricity":0.0001482,"inclination_deg":43.0027,"raan_deg":205.5115,"arg_perigee_deg":281.7955,"mean_anomaly_deg":78.273,"bstar":-9.9433e-6,"rev_number":11355,"period_min":94.26699203626,"perigee_km":482.04407329634,"apogee_km":484.07773235474,"semimajor_km":6861.1979028255,"source":"CELESTRAK","updated_at":"2026-05-25T13:38:19.091700Z"}}